ELY091 LLBG-RJAA

Flight info

Callsign ELY091
Flight time N/A
Altitude 34000
Route DAFNA DCT VELOX N71 DESPO DCT VOLBE DCT VESAR UB545 EVKIT/N0490F350 UT284 SIV UW706 TBN UN61 NOLGA DCT BARAD M747 SUBUT T916 LEYLA N644 NIJAT L88 METKA B476 IZGAR/N0492F370 B476 TIMGA A480 OTBOR/K0904F370 N147 ELAHA Z621 ARBOL M610 RULAD/K0893S1130 A343 POSOT B215 FKG W188 LIKMI W270 POPIB/K0891S1190 W270 DKO W69 HUR B339 LADIX W34 VAPGU W100 ORAVA W201 UNSEK A326 DONVO G597 AGAVO/N0484F390 Y644 EGOBA G597 LANAT Y51 SAMON Y517 ESKAS Y303 ENTAK/N0483F400 Y30 SWAMP
Aircraft B789/H-SACDE1E2E3GHIJ1J3J4J5LM1OP2RVWXY/LB2D1

Departure

Time 2026-05-08 08:39
Airport Ben Gurion International Airport (LLBG)

Arrival

Time N/A
Airport Narita International Airport (RJAA)
Time Latitude Longitude Altitude Speed Heading
2026-05-08 07:59 32.00321 34.87627 125 ft 0 kts 316°
2026-05-08 08:26 32.00312 34.87638 120 ft 2 kts 315°
2026-05-08 08:26 32.00300 34.87651 120 ft 2 kts 315°
2026-05-08 08:26 32.00288 34.87665 120 ft 2 kts 315°
2026-05-08 08:26 32.00276 34.87678 120 ft 2 kts 324°
2026-05-08 08:27 32.00261 34.87682 120 ft 2 kts 18°
2026-05-08 08:27 32.00255 34.87680 120 ft 0 kts 27°
2026-05-08 08:29 32.00270 34.87691 120 ft 6 kts 34°
2026-05-08 08:29 32.00312 34.87723 121 ft 8 kts 32°
2026-05-08 08:30 32.00357 34.87755 121 ft 8 kts 31°
2026-05-08 08:30 32.00422 34.87800 122 ft 12 kts 31°
2026-05-08 08:30 32.00557 34.87897 121 ft 11 kts 31°
2026-05-08 08:31 32.00626 34.87946 120 ft 12 kts 31°
2026-05-08 08:31 32.00695 34.87995 121 ft 11 kts 31°
2026-05-08 08:31 32.00758 34.88041 122 ft 10 kts 32°
2026-05-08 08:31 32.00814 34.88083 121 ft 9 kts 32°
2026-05-08 08:32 32.00874 34.88126 122 ft 11 kts 31°
2026-05-08 08:32 32.00938 34.88173 123 ft 11 kts 32°
2026-05-08 08:32 32.01004 34.88222 121 ft 11 kts 32°
2026-05-08 08:32 32.01073 34.88272 122 ft 12 kts 31°
2026-05-08 08:33 32.01155 34.88329 122 ft 15 kts 31°
2026-05-08 08:33 32.01239 34.88390 122 ft 15 kts 36°
2026-05-08 08:33 32.01322 34.88473 120 ft 16 kts 44°
2026-05-08 08:33 32.01395 34.88575 121 ft 16 kts 54°
2026-05-08 08:34 32.01451 34.88686 122 ft 15 kts 65°
2026-05-08 08:34 32.01488 34.88797 122 ft 14 kts 76°
2026-05-08 08:34 32.01506 34.88912 123 ft 14 kts 79°
2026-05-08 08:34 32.01524 34.89024 124 ft 14 kts 79°
2026-05-08 08:35 32.01540 34.89131 125 ft 13 kts 79°
2026-05-08 08:35 32.01556 34.89232 124 ft 12 kts 79°
2026-05-08 08:35 32.01572 34.89331 125 ft 12 kts 79°
2026-05-08 08:35 32.01587 34.89433 121 ft 13 kts 79°
2026-05-08 08:36 32.01603 34.89535 121 ft 13 kts 80°
2026-05-08 08:36 32.01618 34.89636 120 ft 12 kts 79°
2026-05-08 08:36 32.01653 34.89687 123 ft 0 kts 29°
2026-05-08 08:37 32.01657 34.89689 124 ft 4 kts 29°
2026-05-08 08:38 32.01704 34.89720 120 ft 12 kts 29°
2026-05-08 08:38 32.01779 34.89769 119 ft 13 kts 28°
2026-05-08 08:38 32.01839 34.89736 119 ft 11 kts 285°
2026-05-08 08:38 32.01826 34.89609 121 ft 30 kts 260°
2026-05-08 08:39 32.01751 34.89125 122 ft 91 kts 260°
2026-05-08 08:39 32.01603 34.88155 121 ft 148 kts 260°
2026-05-08 08:39 32.01390 34.86758 140 ft 195 kts 261°
2026-05-08 08:39 32.01151 34.85200 976 ft 185 kts 262°
2026-05-08 08:40 32.00832 34.83650 1535 ft 204 kts 258°
2026-05-08 08:40 32.00480 34.82022 2264 ft 203 kts 258°
2026-05-08 08:40 32.00143 34.80397 2905 ft 209 kts 258°
2026-05-08 08:40 31.99790 34.78688 3420 ft 224 kts 255°
2026-05-08 08:41 31.99394 34.76802 3678 ft 251 kts 255°
2026-05-08 08:41 31.99211 34.74679 3857 ft 282 kts 282°
2026-05-08 08:41 31.99855 34.72606 4624 ft 284 kts 291°
2026-05-08 08:41 32.00561 34.70410 5542 ft 288 kts 288°
2026-05-08 08:42 32.01238 34.68180 6464 ft 291 kts 288°
2026-05-08 08:42 32.01927 34.65937 7411 ft 292 kts 288°
2026-05-08 08:42 32.02602 34.63631 7959 ft 302 kts 280°
2026-05-08 08:42 32.02747 34.61181 8073 ft 301 kts 271°
2026-05-08 08:43 32.02896 34.58775 9183 ft 291 kts 273°
2026-05-08 08:43 32.03042 34.56387 10085 ft 294 kts 273°
2026-05-08 08:43 32.03166 34.53984 10955 ft 296 kts 273°
2026-05-08 08:43 32.03537 34.51582 11650 ft 303 kts 296°
2026-05-08 08:44 32.04815 34.49496 11894 ft 328 kts 319°
2026-05-08 08:44 32.06819 34.48062 12233 ft 348 kts 335°
2026-05-08 08:44 32.09048 34.46933 13108 ft 350 kts 336°
2026-05-08 08:44 32.11299 34.45793 13947 ft 353 kts 335°
2026-05-08 08:45 32.13550 34.44600 14689 ft 357 kts 334°
2026-05-08 08:45 32.15828 34.43380 15427 ft 361 kts 334°
2026-05-08 08:45 32.18103 34.42181 16125 ft 365 kts 335°
2026-05-08 08:45 32.20459 34.40947 16842 ft 369 kts 334°
2026-05-08 08:46 32.22792 34.39717 17535 ft 372 kts 334°
2026-05-08 08:46 32.25166 34.38460 18229 ft 376 kts 334°
2026-05-08 08:46 32.27565 34.37192 18847 ft 379 kts 334°
2026-05-08 08:46 32.30015 34.35898 19482 ft 382 kts 334°
2026-05-08 08:47 32.32417 34.34629 20074 ft 385 kts 334°
2026-05-08 08:47 32.34869 34.33330 20682 ft 387 kts 334°
2026-05-08 08:47 32.37333 34.32024 21279 ft 390 kts 334°
2026-05-08 08:47 32.39824 34.30705 21837 ft 392 kts 334°
2026-05-08 08:48 32.42314 34.29385 22429 ft 395 kts 334°
2026-05-08 08:48 32.44841 34.28044 22987 ft 397 kts 334°
2026-05-08 08:48 32.47369 34.26702 23540 ft 400 kts 334°
2026-05-08 08:48 32.49915 34.25350 24006 ft 402 kts 335°
2026-05-08 08:49 32.52471 34.24004 24564 ft 401 kts 338°
2026-05-08 08:49 32.55155 34.23099 25068 ft 402 kts 349°
2026-05-08 08:49 32.57933 34.22788 25554 ft 403 kts 355°
2026-05-08 08:49 32.60737 34.22608 26030 ft 403 kts 355°
2026-05-08 08:50 32.63535 34.22434 26542 ft 403 kts 355°
2026-05-08 08:50 32.66334 34.22268 27017 ft 403 kts 355°
2026-05-08 08:50 32.69131 34.22098 27509 ft 403 kts 355°
2026-05-08 08:50 32.71939 34.21925 27981 ft 403 kts 355°
2026-05-08 08:51 32.74738 34.21752 28445 ft 403 kts 355°
2026-05-08 08:51 32.77529 34.21582 28910 ft 403 kts 355°
2026-05-08 08:51 32.80337 34.21411 29353 ft 404 kts 355°
2026-05-08 08:51 32.83144 34.21238 29777 ft 404 kts 355°
2026-05-08 08:52 32.85948 34.21066 30204 ft 404 kts 355°
2026-05-08 08:52 32.88764 34.20893 30541 ft 405 kts 355°
2026-05-08 08:52 32.91582 34.20719 30862 ft 406 kts 354°
2026-05-08 08:52 32.94395 34.20547 31180 ft 406 kts 354°
2026-05-08 08:53 32.97224 34.20372 31506 ft 407 kts 354°
2026-05-08 08:53 33.00053 34.20198 31803 ft 408 kts 354°
2026-05-08 08:53 33.02895 34.20023 32096 ft 408 kts 354°
2026-05-08 08:53 33.05730 34.19848 32382 ft 409 kts 354°
2026-05-08 08:54 33.08580 34.19672 32668 ft 410 kts 354°
2026-05-08 08:54 33.11422 34.19497 32940 ft 410 kts 354°
2026-05-08 08:54 33.14279 34.19320 33201 ft 411 kts 354°
2026-05-08 08:54 33.17135 34.19144 33460 ft 412 kts 354°
2026-05-08 08:55 33.20005 34.18966 33724 ft 413 kts 354°
2026-05-08 08:55 33.22878 34.18789 33965 ft 413 kts 354°
2026-05-08 08:55 33.25755 34.18610 34138 ft 415 kts 354°
2026-05-08 08:55 33.28656 34.18430 34127 ft 418 kts 354°
2026-05-08 08:56 33.34409 34.18075 34126 ft 414 kts 353°
2026-05-08 08:56 33.40159 34.17716 34129 ft 414 kts 353°
2026-05-08 08:57 33.45905 34.17359 34130 ft 414 kts 353°
2026-05-08 08:57 33.51655 34.17001 34134 ft 413 kts 353°
2026-05-08 08:58 33.57407 34.16642 34132 ft 414 kts 353°
2026-05-08 08:58 33.63163 34.16283 34131 ft 413 kts 353°
2026-05-08 08:59 33.68912 34.15923 34135 ft 414 kts 353°
2026-05-08 08:59 33.74654 34.15563 34130 ft 414 kts 353°
2026-05-08 09:00 33.80415 34.15202 34129 ft 414 kts 353°
2026-05-08 09:00 33.86161 34.14841 34133 ft 414 kts 353°
2026-05-08 09:01 33.91911 34.14480 34144 ft 414 kts 353°
2026-05-08 09:01 33.97628 34.14120 34135 ft 414 kts 353°
2026-05-08 09:02 34.03371 34.13758 34138 ft 414 kts 353°
2026-05-08 09:02 34.09126 34.13394 34136 ft 414 kts 353°
2026-05-08 09:03 34.14900 34.13029 34127 ft 414 kts 353°
2026-05-08 09:03 34.20652 34.12666 34138 ft 414 kts 353°
2026-05-08 09:04 34.26409 34.12300 34129 ft 415 kts 353°
2026-05-08 09:04 34.31212 34.11996 34120 ft 415 kts 353°
2026-05-08 09:05 34.37948 34.11567 34125 ft 414 kts 353°
2026-05-08 09:05 34.43712 34.11201 34138 ft 415 kts 353°
2026-05-08 09:06 34.49440 34.10835 34141 ft 415 kts 353°
2026-05-08 09:06 34.55213 34.10467 34130 ft 415 kts 353°
2026-05-08 09:07 34.60989 34.10098 34133 ft 415 kts 353°
2026-05-08 09:07 34.65790 34.09790 34133 ft 416 kts 353°
2026-05-08 09:08 34.71568 34.09418 34143 ft 416 kts 353°
2026-05-08 09:08 34.77359 34.09050 34125 ft 417 kts 353°
2026-05-08 09:09 34.84085 34.08616 34124 ft 416 kts 353°
2026-05-08 09:09 34.88937 34.08304 34130 ft 416 kts 353°
2026-05-08 09:10 34.94728 34.07931 34124 ft 417 kts 352°
2026-05-08 09:10 35.00499 34.07558 34136 ft 417 kts 352°
2026-05-08 09:11 35.06341 34.07181 34150 ft 418 kts 352°
2026-05-08 09:11 35.12118 34.06807 34138 ft 419 kts 352°
2026-05-08 09:12 35.17946 34.06429 34149 ft 419 kts 352°
2026-05-08 09:12 35.23773 34.06051 34145 ft 419 kts 352°
2026-05-08 09:13 35.29598 34.05672 34149 ft 420 kts 352°
2026-05-08 09:13 35.35437 34.05292 34150 ft 420 kts 352°
2026-05-08 09:14 35.41276 34.04912 34135 ft 420 kts 352°
2026-05-08 09:14 35.47120 34.04530 34150 ft 420 kts 352°
2026-05-08 09:15 35.52962 34.04148 34139 ft 420 kts 352°
2026-05-08 09:15 35.58800 34.03766 34141 ft 420 kts 352°
2026-05-08 09:16 35.64645 34.03383 34151 ft 421 kts 352°
2026-05-08 09:16 35.70480 34.02999 34151 ft 421 kts 352°
2026-05-08 09:17 35.76341 34.02614 34155 ft 421 kts 352°
2026-05-08 09:17 35.82171 34.02230 34152 ft 421 kts 352°
2026-05-08 09:18 35.88001 34.01715 34166 ft 417 kts 346°
2026-05-08 09:18 35.93554 33.99756 34158 ft 414 kts 334°
2026-05-08 09:19 35.98569 33.96307 34143 ft 413 kts 328°
2026-05-08 09:19 36.03478 33.92624 34244 ft 413 kts 328°
2026-05-08 09:20 36.05926 33.90765 34550 ft 411 kts 328°
2026-05-08 09:20 36.08362 33.88916 34778 ft 412 kts 328°
2026-05-08 09:20 36.10814 33.87062 34939 ft 414 kts 328°
2026-05-08 09:20 36.13250 33.85218 35087 ft 415 kts 328°
2026-05-08 09:21 36.18515 33.82166 35166 ft 423 kts 340°
2026-05-08 09:22 36.36135 33.84070 35171 ft 455 kts 21°
2026-05-08 09:23 36.38848 33.86142 35175 ft 462 kts 26°
2026-05-08 09:23 36.44199 33.90624 35174 ft 463 kts 26°
2026-05-08 09:24 36.49521 33.95124 35173 ft 463 kts 26°
2026-05-08 09:24 36.54859 33.99624 35166 ft 463 kts 26°
2026-05-08 09:25 36.60190 34.04137 35177 ft 464 kts 26°
2026-05-08 09:25 36.65502 34.08635 35179 ft 465 kts 26°
2026-05-08 09:26 36.70855 34.13180 35177 ft 466 kts 26°
2026-05-08 09:26 36.76247 34.17767 35173 ft 467 kts 27°
2026-05-08 09:27 36.81578 34.22308 35169 ft 467 kts 27°
2026-05-08 09:27 36.86947 34.26891 35171 ft 468 kts 27°
2026-05-08 09:28 36.92319 34.31484 35180 ft 468 kts 27°
2026-05-08 09:28 36.97699 34.36090 35191 ft 469 kts 27°
2026-05-08 09:29 37.03099 34.40723 35186 ft 471 kts 28°
2026-05-08 09:29 37.08517 34.45381 35190 ft 471 kts 28°
2026-05-08 09:30 37.13919 34.50030 35190 ft 472 kts 28°
2026-05-08 09:30 37.19327 34.54696 35187 ft 471 kts 28°
2026-05-08 09:31 37.24730 34.59361 35198 ft 473 kts 28°
2026-05-08 09:31 37.30136 34.64042 35200 ft 476 kts 29°
2026-05-08 09:32 37.35589 34.68772 35182 ft 476 kts 29°
2026-05-08 09:32 37.41040 34.73505 35181 ft 476 kts 29°
2026-05-08 09:33 37.46478 34.78238 35196 ft 478 kts 29°
2026-05-08 09:33 37.51950 34.83009 35206 ft 478 kts 30°
2026-05-08 09:34 37.57412 34.87779 35204 ft 478 kts 30°
2026-05-08 09:34 37.62880 34.92563 35206 ft 478 kts 30°
2026-05-08 09:35 37.68341 34.97351 35218 ft 478 kts 30°
2026-05-08 09:35 37.73809 35.02152 35226 ft 478 kts 30°
2026-05-08 09:36 37.79265 35.06953 35228 ft 478 kts 30°
2026-05-08 09:36 37.84686 35.11730 35232 ft 478 kts 30°
2026-05-08 09:37 37.90141 35.16548 35236 ft 478 kts 30°
2026-05-08 09:37 37.95593 35.21370 35235 ft 478 kts 30°
2026-05-08 09:38 38.01038 35.26196 35233 ft 478 kts 30°
2026-05-08 09:38 38.06494 35.31040 35232 ft 479 kts 30°
2026-05-08 09:39 38.11950 35.35894 35238 ft 478 kts 30°
2026-05-08 09:39 38.17406 35.40755 35232 ft 479 kts 30°
2026-05-08 09:40 38.22854 35.45621 35240 ft 478 kts 30°
2026-05-08 09:40 38.28299 35.50491 35236 ft 478 kts 30°
2026-05-08 09:41 38.33732 35.55363 35228 ft 477 kts 30°
2026-05-08 09:41 38.39152 35.60244 35244 ft 477 kts 30°
2026-05-08 09:42 38.44573 35.65131 35247 ft 477 kts 30°
2026-05-08 09:42 38.49991 35.70027 35251 ft 477 kts 30°
2026-05-08 09:43 38.55403 35.74925 35250 ft 477 kts 30°
2026-05-08 09:43 38.60773 35.79795 35253 ft 476 kts 30°
2026-05-08 09:44 38.66180 35.84708 35252 ft 476 kts 30°
2026-05-08 09:44 38.71588 35.89630 35249 ft 477 kts 30°
2026-05-08 09:45 38.77002 35.94568 35250 ft 477 kts 30°
2026-05-08 09:45 38.82369 35.99472 35251 ft 476 kts 30°
2026-05-08 09:46 38.87756 36.04403 35249 ft 476 kts 30°
2026-05-08 09:46 38.93134 36.09337 35241 ft 475 kts 30°
2026-05-08 09:47 38.98521 36.14286 35240 ft 475 kts 30°
2026-05-08 09:47 39.03889 36.19229 35241 ft 474 kts 30°
2026-05-08 09:48 39.09248 36.24172 35236 ft 474 kts 30°
2026-05-08 09:48 39.14612 36.29130 35234 ft 474 kts 31°
2026-05-08 09:49 39.19967 36.34088 35237 ft 474 kts 31°
2026-05-08 09:49 39.25326 36.39060 35233 ft 474 kts 31°
2026-05-08 09:50 39.30645 36.44003 35224 ft 475 kts 31°
2026-05-08 09:50 39.36000 36.48992 35221 ft 475 kts 31°
2026-05-08 09:51 39.41355 36.53989 35223 ft 475 kts 31°
2026-05-08 09:51 39.46719 36.59004 35219 ft 475 kts 31°
2026-05-08 09:52 39.52081 36.64027 35219 ft 475 kts 31°
2026-05-08 09:52 39.57446 36.69061 35239 ft 477 kts 32°
2026-05-08 09:53 39.62820 36.74116 35260 ft 477 kts 32°
2026-05-08 09:53 39.68197 36.79182 35279 ft 477 kts 32°
2026-05-08 09:54 39.72656 36.83391 35298 ft 477 kts 32°
2026-05-08 09:54 39.77881 36.88719 35325 ft 481 kts 43°
2026-05-08 09:54 39.80639 36.93276 35309 ft 489 kts 57°
2026-05-08 09:55 39.82326 36.97119 35298 ft 489 kts 57°
2026-05-08 09:55 39.85678 37.04821 35292 ft 488 kts 57°
2026-05-08 09:56 39.88464 37.11271 35264 ft 487 kts 57°
2026-05-08 09:56 39.91767 37.18902 35233 ft 487 kts 57°
2026-05-08 09:57 39.96737 37.30445 35190 ft 486 kts 57°
2026-05-08 09:57 40.00040 37.38135 35197 ft 486 kts 57°
2026-05-08 09:58 40.03332 37.45822 35189 ft 485 kts 57°
2026-05-08 09:58 40.06619 37.53513 35183 ft 485 kts 58°
2026-05-08 09:59 40.09898 37.61196 35185 ft 484 kts 57°
2026-05-08 09:59 40.13175 37.68818 35185 ft 484 kts 58°
2026-05-08 10:00 40.16452 37.76503 35190 ft 483 kts 58°
2026-05-08 10:00 40.19731 37.84188 35194 ft 483 kts 58°
2026-05-08 10:01 40.22996 37.91871 35187 ft 483 kts 58°
2026-05-08 10:01 40.26258 37.99563 35184 ft 483 kts 58°
2026-05-08 10:02 40.29511 38.07253 35194 ft 483 kts 58°
2026-05-08 10:02 40.32759 38.14957 35197 ft 482 kts 59°
2026-05-08 10:03 40.35874 38.22738 35198 ft 482 kts 58°
2026-05-08 10:03 40.39070 38.30411 35211 ft 481 kts 57°
2026-05-08 10:04 40.42338 38.38106 35206 ft 483 kts 58°
2026-05-08 10:04 40.45658 38.45778 35207 ft 482 kts 57°
2026-05-08 10:05 40.48945 38.53469 35212 ft 483 kts 58°
2026-05-08 10:05 40.52150 38.61220 35193 ft 483 kts 59°
2026-05-08 10:06 40.55383 38.68967 35197 ft 484 kts 59°
2026-05-08 10:06 40.58538 38.76789 35199 ft 484 kts 59°
2026-05-08 10:07 40.61727 38.84591 35208 ft 484 kts 59°
2026-05-08 10:07 40.64876 38.92373 35206 ft 484 kts 59°
2026-05-08 10:08 40.68025 39.00195 35202 ft 484 kts 59°
2026-05-08 10:08 40.71175 39.08036 35198 ft 484 kts 59°
2026-05-08 10:09 40.74318 39.15881 35200 ft 484 kts 59°
2026-05-08 10:09 40.77455 39.23729 35202 ft 484 kts 59°
2026-05-08 10:10 40.80587 39.31589 35201 ft 484 kts 60°
2026-05-08 10:10 40.83716 39.39458 35207 ft 483 kts 60°
2026-05-08 10:11 40.86832 39.47320 35206 ft 483 kts 60°
2026-05-08 10:11 40.89946 39.55196 35217 ft 483 kts 60°
2026-05-08 10:12 40.93057 39.63084 35214 ft 483 kts 60°
2026-05-08 10:12 40.96155 39.70961 35223 ft 482 kts 60°
2026-05-08 10:13 40.99157 39.78903 35234 ft 484 kts 69°
2026-05-08 10:13 41.00734 39.87564 35225 ft 489 kts 76°
2026-05-08 10:14 41.02058 39.96390 35221 ft 489 kts 76°
2026-05-08 10:14 41.03376 40.05237 35218 ft 490 kts 76°
2026-05-08 10:15 41.04690 40.14097 35215 ft 490 kts 77°
2026-05-08 10:15 41.05995 40.22954 35214 ft 490 kts 77°
2026-05-08 10:16 41.07295 40.31817 35209 ft 490 kts 77°
2026-05-08 10:16 41.08590 40.40702 35213 ft 491 kts 77°
2026-05-08 10:17 41.09879 40.49596 35213 ft 490 kts 77°
2026-05-08 10:17 41.11158 40.58468 35216 ft 489 kts 77°
2026-05-08 10:18 41.12429 40.67335 35220 ft 490 kts 77°
2026-05-08 10:18 41.13695 40.76225 35225 ft 491 kts 77°
2026-05-08 10:19 41.14952 40.85091 35221 ft 492 kts 77°
2026-05-08 10:20 41.16836 40.98495 35221 ft 492 kts 78°
2026-05-08 10:20 41.18086 41.07446 35220 ft 493 kts 78°
2026-05-08 10:21 41.19330 41.16410 35222 ft 494 kts 78°
2026-05-08 10:21 41.20569 41.25392 35221 ft 494 kts 78°
2026-05-08 10:22 41.21799 41.34366 35221 ft 494 kts 78°
2026-05-08 10:22 41.23023 41.43349 35210 ft 494 kts 78°
2026-05-08 10:23 41.24240 41.52332 35210 ft 494 kts 78°
2026-05-08 10:23 41.25452 41.61330 35211 ft 495 kts 78°
2026-05-08 10:24 41.26649 41.70277 35214 ft 496 kts 79°
2026-05-08 10:24 41.27851 41.79317 35213 ft 497 kts 79°
2026-05-08 10:25 41.29047 41.88369 35216 ft 497 kts 79°
2026-05-08 10:25 41.30235 41.97420 35217 ft 497 kts 79°
2026-05-08 10:26 41.31407 42.06490 35215 ft 497 kts 79°
2026-05-08 10:26 41.32574 42.15570 35215 ft 498 kts 79°
2026-05-08 10:27 41.33733 42.24654 35208 ft 499 kts 80°
2026-05-08 10:27 41.34888 42.33764 35212 ft 499 kts 80°
2026-05-08 10:28 41.36038 42.42887 35210 ft 500 kts 80°
2026-05-08 10:28 41.37182 42.52030 35203 ft 501 kts 80°
2026-05-08 10:29 41.38313 42.61126 35200 ft 502 kts 80°
2026-05-08 10:29 41.39446 42.70303 35195 ft 502 kts 81°
2026-05-08 10:30 41.40573 42.79484 35190 ft 503 kts 81°
2026-05-08 10:30 41.41693 42.88682 35181 ft 503 kts 81°
2026-05-08 10:31 41.42734 42.97904 35182 ft 503 kts 89°
2026-05-08 10:31 41.42586 43.07226 35173 ft 504 kts 92°
2026-05-08 10:32 41.42341 43.16566 35174 ft 505 kts 92°
2026-05-08 10:32 41.42107 43.25926 35183 ft 506 kts 92°
2026-05-08 10:33 41.41850 43.35307 35174 ft 507 kts 93°
2026-05-08 10:33 41.41598 43.44640 35183 ft 507 kts 93°
2026-05-08 10:34 41.41329 43.54038 35191 ft 508 kts 93°
2026-05-08 10:34 41.41056 43.63457 35200 ft 509 kts 93°
2026-05-08 10:35 41.40773 43.72866 35198 ft 509 kts 94°
2026-05-08 10:35 41.40483 43.82302 35193 ft 510 kts 94°
2026-05-08 10:36 41.40185 43.91739 35191 ft 510 kts 94°
2026-05-08 10:36 41.39879 44.01176 35184 ft 510 kts 94°
2026-05-08 10:37 41.39565 44.10615 35177 ft 511 kts 94°
2026-05-08 10:37 41.39243 44.20080 35172 ft 512 kts 94°
2026-05-08 10:38 41.38913 44.29547 35165 ft 513 kts 95°
2026-05-08 10:38 41.38573 44.39041 35166 ft 514 kts 95°
2026-05-08 10:39 41.38226 44.48573 35160 ft 515 kts 95°
2026-05-08 10:39 41.37871 44.58053 35151 ft 517 kts 95°
2026-05-08 10:40 41.37506 44.67618 35146 ft 518 kts 95°
2026-05-08 10:40 41.37132 44.77198 35141 ft 519 kts 95°
2026-05-08 10:41 41.36753 44.86699 35133 ft 503 kts 94°
2026-05-08 10:41 41.36378 44.95947 35143 ft 501 kts 94°
2026-05-08 10:42 41.35989 45.05247 35145 ft 504 kts 95°
2026-05-08 10:42 41.35437 45.09832 35176 ft 502 kts 108°
2026-05-08 10:42 41.34356 45.14256 35148 ft 503 kts 110°
2026-05-08 10:43 41.32086 45.23072 35145 ft 503 kts 110°
2026-05-08 10:43 41.29836 45.31840 35151 ft 504 kts 110°
2026-05-08 10:44 41.27559 45.40654 35153 ft 504 kts 110°
2026-05-08 10:44 41.25663 45.47976 35151 ft 504 kts 110°
2026-05-08 10:45 41.23370 45.56803 35151 ft 505 kts 111°
2026-05-08 10:45 41.21068 45.65628 35155 ft 506 kts 111°
2026-05-08 10:46 41.18750 45.74450 35140 ft 506 kts 111°
2026-05-08 10:46 41.16423 45.83270 35139 ft 506 kts 111°
2026-05-08 10:47 41.14092 45.92081 35151 ft 506 kts 111°
2026-05-08 10:47 41.12002 46.00988 35196 ft 508 kts 99°
2026-05-08 10:48 41.11675 46.10422 35171 ft 514 kts 90°
2026-05-08 10:48 41.12061 46.19896 35179 ft 515 kts 87°
2026-05-08 10:49 41.12615 46.29377 35184 ft 516 kts 87°
2026-05-08 10:49 41.13208 46.38806 35193 ft 516 kts 87°
2026-05-08 10:50 41.13827 46.48364 35175 ft 517 kts 86°
2026-05-08 10:50 41.14445 46.57810 35186 ft 518 kts 86°
2026-05-08 10:51 41.15072 46.67332 35211 ft 518 kts 87°
2026-05-08 10:51 41.15409 46.76844 35232 ft 514 kts 98°
2026-05-08 10:52 41.13891 46.86049 35227 ft 510 kts 112°
2026-05-08 10:52 41.11356 46.94829 35222 ft 509 kts 116°
2026-05-08 10:53 41.08474 47.03388 35210 ft 508 kts 119°
2026-05-08 10:53 41.05340 47.11760 35216 ft 506 kts 122°
2026-05-08 10:54 41.02070 47.20042 35215 ft 507 kts 121°
2026-05-08 10:54 40.98891 47.28327 35228 ft 509 kts 120°
2026-05-08 10:55 40.95694 47.36706 35211 ft 510 kts 121°
2026-05-08 10:55 40.92497 47.45096 35198 ft 511 kts 121°
2026-05-08 10:56 40.89304 47.53475 35190 ft 511 kts 121°
2026-05-08 10:56 40.86103 47.61878 35187 ft 512 kts 121°
2026-05-08 10:57 40.82903 47.70276 35183 ft 512 kts 121°
2026-05-08 10:57 40.79137 47.83498 35229 ft 525 kts 99°
2026-05-08 10:58 40.78997 47.88333 35232 ft 531 kts 88°
2026-05-08 10:58 40.79290 47.93195 35193 ft 532 kts 88°
2026-05-08 10:58 40.79995 48.02931 35198 ft 532 kts 86°
2026-05-08 10:59 40.80674 48.12654 35205 ft 532 kts 87°
2026-05-08 10:59 40.81345 48.22379 35201 ft 532 kts 87°
2026-05-08 11:00 40.82014 48.32112 35197 ft 531 kts 87°
2026-05-08 11:00 40.82667 48.41824 35180 ft 531 kts 87°
2026-05-08 11:01 40.83315 48.51493 35170 ft 531 kts 88°
2026-05-08 11:01 40.83953 48.61225 35164 ft 532 kts 88°
2026-05-08 11:02 40.84900 48.75825 35154 ft 532 kts 88°
2026-05-08 11:03 40.85520 48.85559 35141 ft 532 kts 88°
2026-05-08 11:03 40.86132 48.95293 35157 ft 532 kts 88°
2026-05-08 11:04 40.86736 49.05038 35161 ft 532 kts 88°
2026-05-08 11:04 40.87332 49.14780 35158 ft 532 kts 89°
2026-05-08 11:05 40.87918 49.24511 35161 ft 531 kts 89°
2026-05-08 11:05 40.88248 49.34226 35180 ft 524 kts 100°
2026-05-08 11:06 40.86802 49.43585 35160 ft 520 kts 108°
2026-05-08 11:06 40.85091 49.52790 35151 ft 520 kts 109°
2026-05-08 11:07 40.83370 49.62091 35154 ft 521 kts 109°
2026-05-08 11:07 40.81632 49.71400 35142 ft 520 kts 109°
2026-05-08 11:08 40.79900 49.80639 35129 ft 521 kts 109°
2026-05-08 11:08 40.78140 49.89921 35122 ft 521 kts 110°
2026-05-08 11:09 40.76397 49.99214 35083 ft 523 kts 109°
2026-05-08 11:09 40.74631 50.08499 35137 ft 521 kts 110°
2026-05-08 11:10 40.72855 50.17777 35138 ft 522 kts 110°
2026-05-08 11:10 40.71085 50.27023 35133 ft 522 kts 110°
2026-05-08 11:11 40.69293 50.36298 35131 ft 522 kts 110°
2026-05-08 11:11 40.68066 50.45768 35138 ft 534 kts 94°
2026-05-08 11:12 40.68449 50.55622 35128 ft 539 kts 91°
2026-05-08 11:12 40.68929 50.65470 35134 ft 538 kts 91°
2026-05-08 11:13 40.69365 50.75332 35132 ft 539 kts 91°
2026-05-08 11:13 40.69815 50.85193 35125 ft 540 kts 91°
2026-05-08 11:14 40.70239 50.95019 35124 ft 545 kts 90°